NOAA 16 DEB, 42368

Orbit data source: Space-Track

NOAA 16 DEB, 42368 is space debris in SSO originally from a launch on Thu, 21 Sep 2000 UTC launched from the Air Force Western Test Range (AFWTR). Debris objects in space refer to the collection of defunct objects orbiting the Earth. Examples of debris include non-operational satellites, rocket bodies, and fragments generated from explosions, collisions, or faulty payload assembly.

Loading next visibility...
Identifier
42368, 2000-055RL
Orbit
SSO
Country
Flag of USUS
Related business
Manufacturer
Unknown
Mission
Spacecraft
Bus & Motor
Unknown
Mass
Unknown
Launch date (UTC)
2000-09-21 (25 years ago)
Launch vehicle
Unknown
Launch site
Air Force Western Test Range (AFWTR)
Object type
Payload
Rocket body
Debris
Shape & HBR
Unknown shape, 0.1 m
Radar Cross Section
Small (<0.1 m²)

Expand to show TLE details & history
Last TLE update: 17 hours ago

TLE from 17 hours ago
0 NOAA 16 DEB
1 42368U 00055RL  25308.95123862  .00004447  00000-0  18360-2 0  9996
2 42368  98.7322  26.0093 0009082   1.1394 358.9805 14.27233800495245
Epoch: 2025-11-04T22:49Z
TLE epoch observation values (Epoch: 2025-11-04T22:49:47.016Z)
Latitude
-0.0001°
Longitude
-0.86748°
Altitude
797.395 km
Speed
7.458 km/s
True Right ascension
01h 44m 02s
True Declination
0° 00' 00"
Sunlit
Object was in full shadow at epoch
Visualization orbit readout
Latitude
Unknown
Longitude
Unknown
Altitude
Unknown
Speed
Unknown
Apparent Right ascension
Unknown
Apparent Declination
Unknown
Sunlit
N/A
Visualization observer readout
Local Sidereal Time
12:10:14
Azimuth
Unknown
Elevation
Unknown
Doppler factor
Unknown
Orbital elements
Apogee altitude
804.66 km
Perigee altitude
791.625 km
Semi-major axis
7,176.279 km
Eccentricity
0.00091
Inclination
98.7322°
RAAN
26.0093°
Arg. of periapsis
1.1394°
True anomaly
358.97865°
Mean anomaly
358.9805°
Eccentric anomaly
358.97957°
Mean motion
3.57021 °/min
Orbital period
100.83 mins
BSTAR
0.001836
Loading maneuver chart data...
Computing Atmospheric mass density...
Loading historical data...
Loading historical data...
Loading historical data...
Loading historical data...
Loading historical data...
Loading historical data...
Loading historical data...

Documentation

Showing up to 5 results
|